Groton, CT

7:26 PM EDT on March 22, 2017 (GMT -0400)
Groton-New London

Weather History for KGON - November, 2010

Change the Weather History Date:

Wednesday, November 17, 2010

  Actual Average Record
Temperature  
Mean Temperature 58 °F -  
Max Temperature 62 °F 51 °F 65 °F (1981)
Min Temperature 52 °F 32 °F 16 °F (1967)
Degree Days  
Heating Degree Days 8    
Growing Degree Days 8 (Base 50)    
Moisture  
Dew Point 49 °F    
Average Humidity 73    
Maximum Humidity 94    
Minimum Humidity 42    
Precipitation  
Precipitation 0.85 in - - ()
Sea Level Pressure  
Sea Level Pressure 29.62 in    
Wind  
Wind Speed 19 mph (SSW)    
Max Wind Speed 28 mph    
Max Gust Speed 39 mph    
Visibility 7 miles    
Events Rain    
Averages and records for this station are not official NWS values.
T = Trace of Precipitation, MM = Missing Value Source: NWS Daily Summary

Daily Weather History Graph

Daily Weather History Graph

Search for Another Location

Airport or City:

Trip Planner

Search our weather history database for the weather conditions in past years. The results will help you decide how hot, cold, wet, or windy it might be!

Date:

Astronomy

Nov. 17, 2010 Rise Set
Actual Time 6:38 AM EST 4:27 PM EST
Civil Twilight 6:08 AM EST 4:56 PM EST
Nautical Twilight 5:35 AM EST 5:30 PM EST
Astronomical Twilight 5:02 AM EST 6:03 PM EST
Moon 1:59 PM EST (11/17) 2:32 AM EST (11/17)
Length of Visible Light 10h 47m
Length of Day
9h 48m
Waxing Gibbous, 85% of the Moon is Illuminated
Nov 17
Waxing Gibbous
Nov 21
Full
Nov 28
Last Quarter
Dec 5
New
Dec 13
First Quarter

Hourly Weather History & Observations

Time (EST) Temp. Dew Point Humidity Pressure Visibility Wind Dir Wind Speed Gust Speed Precip Events Conditions
12:56 AM 55.9 °F 54.0 °F 93% 29.79 in 6.0 mi East 17.3 mph 32.2 mph 0.06 in Rain Light Rain
1:56 AM 57.0 °F 54.0 °F 89% 29.73 in 5.0 mi East 21.9 mph 29.9 mph 0.09 in Rain Light Rain
2:56 AM 59.0 °F 55.9 °F 90% 29.67 in 3.0 mi ESE 19.6 mph 33.4 mph 0.13 in Rain Heavy Rain
3:04 AM 59.0 °F 57.2 °F 94% 29.66 in 2.0 mi SE 25.3 mph 35.7 mph 0.05 in Rain Heavy Rain
3:18 AM 60.8 °F 57.2 °F 88% 29.65 in 4.0 mi SE 21.9 mph 29.9 mph 0.08 in Rain Light Rain
3:46 AM 60.8 °F 57.2 °F 88% 29.62 in 2.0 mi SSE 24.2 mph - 0.18 in Rain Rain
3:56 AM 60.1 °F 57.9 °F 93% 29.62 in 3.0 mi South 26.5 mph 34.5 mph 0.20 in Rain Rain
4:02 AM 60.8 °F 57.2 °F 88% 29.60 in 1.8 mi South 27.6 mph 34.5 mph 0.06 in Rain Heavy Rain
4:21 AM 60.8 °F 57.2 °F 88% 29.62 in 1.8 mi SSW 20.7 mph 31.1 mph 0.27 in Rain Heavy Rain
4:24 AM 60.8 °F 57.2 °F 88% 29.62 in 2.0 mi SSW 19.6 mph 31.1 mph 0.28 in Rain Heavy Rain
4:40 AM 60.8 °F 57.2 °F 88% 29.60 in 3.0 mi South 17.3 mph 29.9 mph 0.33 in Rain Rain
4:56 AM 59.0 °F 57.0 °F 93% 29.59 in 4.0 mi South 20.7 mph - 0.36 in Rain Light Rain
5:45 AM 59.0 °F 55.4 °F 88% 29.55 in 5.0 mi SSE 25.3 mph 33.4 mph 0.01 in   Overcast
6:56 AM 59.0 °F 55.9 °F 90% 29.55 in 7.0 mi SSW 16.1 mph - 0.01 in Rain Light Rain
7:56 AM 59.0 °F 55.0 °F 87% 29.54 in 7.0 mi South 15.0 mph - 0.00 in   Overcast
8:30 AM 59.0 °F 55.4 °F 88% 29.54 in 9.0 mi SW 9.2 mph - N/A   Overcast
8:56 AM 60.1 °F 55.9 °F 86% 29.53 in 6.0 mi SSW 15.0 mph - N/A   Scattered Clouds
9:56 AM 61.0 °F 54.0 °F 78% 29.52 in 9.0 mi SW 19.6 mph 25.3 mph N/A   Clear
10:56 AM 61.0 °F 53.1 °F 75% 29.52 in 10.0 mi SW 17.3 mph 23.0 mph N/A   Clear
11:56 AM 62.1 °F 52.0 °F 70% 29.50 in 10.0 mi WSW 16.1 mph 23.0 mph N/A   Mostly Cloudy
12:56 PM 60.1 °F 43.0 °F 53% 29.50 in 10.0 mi West 20.7 mph 34.5 mph N/A   Mostly Cloudy
1:56 PM 59.0 °F 43.0 °F 55% 29.52 in 10.0 mi WSW 20.7 mph 39.1 mph N/A   Mostly Cloudy
2:56 PM 59.0 °F 43.0 °F 55% 29.54 in 10.0 mi WSW 21.9 mph 31.1 mph N/A   Mostly Cloudy
3:56 PM 57.9 °F 39.9 °F 51% 29.57 in 10.0 mi WSW 15.0 mph 29.9 mph N/A   Mostly Cloudy
4:56 PM 57.9 °F 41.0 °F 53% 29.60 in 10.0 mi WSW 16.1 mph 28.8 mph N/A   Overcast
5:56 PM 57.9 °F 35.1 °F 42% 29.64 in 10.0 mi West 16.1 mph 27.6 mph N/A   Partly Cloudy
6:56 PM 55.4 °F 33.8 °F 44% 29.67 in 10.0 mi West 18.4 mph 31.1 mph N/A   Clear
7:56 PM 55.0 °F 34.0 °F 45% 29.68 in 10.0 mi West 16.1 mph 24.2 mph N/A   Clear
8:56 PM 54.0 °F 32.0 °F 43% 29.72 in 10.0 mi West 15.0 mph 23.0 mph N/A   Clear
9:56 PM 54.0 °F 32.0 °F 43% 29.74 in 10.0 mi West 18.4 mph 28.8 mph N/A   Clear
10:56 PM 53.1 °F 32.0 °F 45% 29.77 in 10.0 mi West 13.8 mph 27.6 mph N/A   Partly Cloudy
11:56 PM 52.0 °F 33.1 °F 49% 29.80 in 10.0 mi West 13.8 mph 21.9 mph N/A   Clear